This is the latest recevied weather packets stored in our database for station/object LX0APE-4. If no packets are shown the sender has not sent any weather packets the latest 10 day(s).
| Time | Temp. | Humidity | Pressure | Rain* | Wind** | Luminosity | Snow |
|---|---|---|---|---|---|---|---|
| 1777729919 | 32.22° C | 27% | 5014.6 hPa | 0 mm | - | - | - |
| 1777729619 | 32.22° C | 27% | 5014.7 hPa | 0 mm | - | - | - |
| 1777729319 | 32.22° C | 27% | 5014.9 hPa | 0 mm | - | - | - |
| 1777729024 | 32.22° C | 27% | 5014.8 hPa | 0 mm | - | - | - |
| 1777729019 | 32.22° C | 27% | 5014.8 hPa | 0 mm | - | - | - |
| 1777728719 | 32.78° C | 26% | 5014.9 hPa | 0 mm | - | - | - |
| 1777728419 | 33.33° C | 28% | 5014.9 hPa | 0 mm | - | - | - |
| 1777728120 | 32.78° C | 28% | 5014.8 hPa | 0 mm | - | - | - |
| 1777727819 | 32.78° C | 30% | 5014.9 hPa | 0 mm | - | - | - |
| 1777727519 | 32.78° C | 31% | 5015 hPa | 0 mm | - | - | - |
| 1777727219 | 31.67° C | 32% | 5015.1 hPa | 0 mm | - | - | - |
| 1777726919 | 31.11° C | 33% | 5015.1 hPa | 0 mm | - | - | - |
| 1777726619 | 30.56° C | 33% | 5015.1 hPa | 0 mm | - | - | - |
| 1777726319 | 30° C | 33% | 5015.2 hPa | 0 mm | - | - | - |
| 1777726019 | 29.44° C | 34% | 5015.4 hPa | 0 mm | - | - | - |
| 1777725719 | 29.44° C | 35% | 5015.5 hPa | 0 mm | - | - | - |
| 1777725419 | 28.89° C | 35% | 5015.4 hPa | 0 mm | - | - | - |
| 1777725119 | 28.89° C | 36% | 5015.5 hPa | 0 mm | - | - | - |
| 1777724819 | 28.89° C | 36% | 5015.5 hPa | 0 mm | - | - | - |
| 1777724519 | 28.89° C | 37% | 5015.5 hPa | 0 mm | - | - | - |
| 1777724219 | 28.33° C | 37% | 5015.6 hPa | 0 mm | - | - | - |
| 1777723919 | 28.33° C | 37% | 5015.8 hPa | 0 mm | - | - | - |
| 1777723625 | 27.78° C | 37% | 5015.7 hPa | 0 mm | - | - | - |
| 1777723619 | 27.78° C | 37% | 5015.7 hPa | 0 mm | - | - | - |
| 1777723319 | 27.78° C | 38% | 5015.9 hPa | 0 mm | - | - | - |
* Rain latest hour (hover to see other rain measurements)
** Current wind speed in m/s (hover to see current wind gust speed)